Terminal Aerodrome Forecast
Issued by NWS Caribou, ME

Home | Current Version | Previous Version | Text Only | Print | Product List | Glossary On
Versions: 1 2 3 4 5 6 7 8 9 10 11 12 13 14 15 16 17 18 19 20 21 22 23 24 25 26 27 28 29 30
000
FTUS41 KCAR 241400 AAF
TAFCAR
TAF AMD
KCAR 241412Z 2414/2512 34014KT 1 1/2SM -SN BR BKN008 OVC015
     FM241500 35015G25KT 3SM -RASN BR SCT007 OVC015
     FM241530 36015G25KT 5SM -RA BR OVC015
     FM241800 36014G22KT 6SM -SHRA OVC020=

USA.gov is the U.S. government's official web portal to all federal, state and local government web resources and services.